Theta_e
307 308 308 308 308 308 308 308 308 308 308 309 309 309 309 310 310 311 311 311 311 311 310 310 310 310 311 311 311 312 314 315 316 316 317 317 316 316 315 314 313 313 313 314 314 314 315 316 315 313 316 316 317 320 318 316 315 318 321 318 316 317 318 319 319 319 320 319 319 318 318 318 318 318 317 317 317 317 317 316 315 314 314 314 314 314 314 314
308 308 308 308 308 308 308 308 309 309 309 309 309 309 310 310 310 310 310 310 310 310 310 310 311 311 311 311 312 314 315 316 318 318 317 316 316 316 315 313 313 314 315 315 314 315 316 317 315 314 317 317 317 319 321 319 317 320 321 317 318 319 319 320 320 320 320 320 319 319 318 318 318 318 317 317 318 318 318 317 315 314 314 314 314 313 313 313
308 308 308 308 308 308 309 309 309 309 309 309 310 310 310 310 310 310 310 310 310 310 310 310 311 311 311 313 314 315 315 317 319 318 316 315 315 314 314 314 315 316 316 317 315 315 316 316 315 315 316 317 317 318 320 319 319 320 320 319 320 319 319 319 320 319 319 319 319 319 317 318 318 318 317 318 318 318 318 318 316 316 315 314 313 313 312 312
308 308 309 309 309 309 309 309 309 309 309 309 310 309 310 310 310 310 310 310 310 310 310 311 311 312 313 314 315 315 316 319 320 316 314 314 314 314 315 316 316 317 317 317 317 315 315 315 314 315 316 317 317 317 320 319 319 321 320 320 318 318 319 318 319 318 317 318 318 319 317 318 318 317 317 317 317 319 319 317 316 316 314 313 313 312 312 312
309 309 309 309 309 309 309 309 309 309 309 309 310 310 310 310 310 310 310 310 310 310 310 311 312 313 315 315 315 315 316 320 318 314 314 314 315 315 315 316 315 315 316 318 317 315 315 315 315 315 316 318 318 318 319 318 318 320 319 319 318 318 319 318 318 317 316 317 317 318 317 317 317 316 317 317 317 318 317 315 315 314 314 313 313 312 312 312
310 310 309 309 309 309 309 309 309 309 309 309 309 309 309 309 309 309 310 310 310 310 311 312 314 314 315 315 316 315 318 321 316 313 315 314 315 315 315 315 314 314 317 318 317 315 316 315 316 316 317 318 318 318 318 317 318 319 319 318 318 318 319 318 317 317 316 317 317 318 317 316 316 317 317 317 317 316 314 314 314 314 313 313 312 312 312 312
311 310 310 310 309 309 309 309 309 309 309 309 309 309 309 309 309 309 310 310 310 312 313 314 314 315 315 316 317 318 320 322 317 314 315 315 314 314 314 314 314 316 318 318 316 316 316 315 316 317 317 317 318 318 317 317 318 319 319 318 318 317 318 318 317 316 315 316 317 316 315 315 316 316 316 316 315 314 314 313 313 313 313 312 312 312 312 311
311 311 310 310 310 309 309 309 309 309 309 309 309 309 309 309 309 310 310 310 311 312 314 315 315 316 317 317 319 320 321 322 320 318 318 317 316 314 315 316 317 318 318 318 317 316 316 316 316 316 317 317 317 318 316 317 319 319 318 318 317 317 317 317 316 315 315 316 315 314 315 316 316 315 315 316 314 313 313 312 312 312 312 311 312 312 312 312
311 311 311 311 310 310 309 309 309 309 308 308 309 309 309 309 309 310 310 311 312 313 314 315 316 317 318 319 319 321 321 321 320 320 320 320 319 317 318 318 319 319 319 319 317 315 315 316 316 315 317 317 317 318 316 317 319 318 318 317 317 317 317 316 316 316 315 315 315 314 315 316 315 314 315 315 313 312 312 311 311 311 310 311 311 311 312 311
310 311 311 311 311 310 310 310 309 309 309 309 309 309 309 309 309 310 310 311 313 314 315 315 317 318 319 320 320 320 321 320 319 320 320 320 320 320 320 321 321 320 319 319 317 315 316 316 315 315 316 317 317 317 316 317 317 316 316 316 317 317 317 316 316 316 315 315 314 314 316 316 314 314 316 314 312 312 310 311 311 310 310 310 311 311 311 311
310 310 310 310 310 310 310 310 310 309 309 309 309 308 309 309 309 310 311 312 313 314 315 316 318 319 319 319 320 321 321 320 320 320 320 320 320 320 321 321 321 321 319 318 316 315 314 314 314 315 316 317 317 317 316 316 315 315 316 316 317 317 317 316 316 316 315 315 315 314 316 316 313 314 316 313 311 311 309 310 310 309 310 310 311 311 310 310
309 309 309 309 310 310 310 310 310 310 309 309 309 308 309 309 309 310 311 312 314 315 316 317 319 319 319 319 320 321 321 320 320 320 319 319 320 319 319 320 320 320 319 317 316 315 315 315 316 316 317 318 318 317 316 315 315 315 315 317 318 318 318 318 317 316 315 316 314 314 316 316 315 315 314 312 310 310 309 310 309 309 310 310 310 310 310 310
309 308 308 308 309 309 310 310 310 310 310 309 308 308 309 309 309 310 311 313 314 316 317 318 319 319 319 321 321 320 320 320 320 319 319 319 319 319 319 319 319 319 318 316 317 317 317 318 317 316 317 318 318 317 315 315 315 316 316 317 318 319 319 318 317 315 315 315 314 315 316 318 318 315 312 311 310 309 310 310 309 309 309 309 309 309 311 311
309 308 308 308 308 308 309 309 309 309 309 309 309 308 308 309 309 310 312 314 315 316 318 318 319 319 319 321 321 320 320 320 320 319 319 319 319 318 318 318 318 318 317 316 317 317 318 318 317 317 316 317 317 316 316 316 316 317 318 317 318 319 318 317 316 315 316 314 313 315 316 319 318 314 311 310 310 310 311 312 310 309 308 308 309 309 311 311
308 308 308 308 308 308 308 309 309 309 309 309 308 308 308 308 310 311 313 314 316 317 318 318 319 319 320 321 320 320 320 319 320 319 319 319 318 318 318 318 317 317 316 316 317 317 318 318 317 318 316 315 316 316 318 318 317 318 317 318 320 319 318 318 317 316 316 314 313 315 316 319 318 313 311 310 309 310 312 313 311 310 308 308 308 309 309 310
308 308 307 308 308 308 308 308 308 308 308 308 308 308 308 308 310 312 314 315 316 317 317 318 319 319 320 321 320 320 320 319 319 319 319 318 318 318 317 317 316 316 316 316 316 317 317 317 316 316 316 315 317 318 319 319 319 319 318 318 320 320 320 319 316 316 317 315 315 315 317 320 317 313 311 310 310 311 312 314 312 310 309 308 308 308 308 308
308 308 308 307 307 308 308 308 308 308 307 307 307 307 308 309 311 313 314 315 316 317 317 318 319 319 320 320 319 319 319 319 319 319 318 318 318 317 317 316 316 316 316 316 316 316 316 316 315 316 316 317 318 318 319 319 319 320 319 319 319 320 319 319 317 316 316 315 316 316 316 318 317 314 311 310 310 311 312 313 313 311 309 308 308 308 307 307
308 307 307 307 307 308 308 308 308 307 307 306 307 308 309 311 312 313 314 315 316 317 317 318 318 318 319 319 319 318 318 319 319 318 318 318 318 317 316 316 316 316 316 316 316 316 316 316 316 317 318 317 318 319 319 319 319 320 320 319 320 320 319 319 319 317 316 316 317 317 317 318 318 316 313 311 310 311 312 313 313 312 310 309 308 307 307 306
309 307 307 307 307 308 308 308 308 307 306 306 307 309 310 312 313 314 314 316 317 318 319 319 318 318 319 319 319 318 318 318 318 318 317 318 317 316 316 316 316 316 317 317 317 317 317 317 317 318 319 318 318 319 319 320 320 320 320 319 319 320 319 320 319 316 316 317 317 318 318 319 319 318 315 312 311 312 312 313 313 311 310 309 308 307 307 306
308 307 307 307 307 308 308 308 307 307 306 306 308 310 312 315 316 316 316 316 317 317 320 321 319 319 320 319 318 318 318 318 318 317 317 317 317 316 316 316 316 317 318 319 318 317 317 318 319 319 320 320 319 319 319 320 319 319 320 319 319 319 319 320 319 316 315 317 318 319 319 319 320 320 318 315 312 312 313 313 313 311 310 309 308 308 307 306
307 307 307 307 308 308 308 308 307 306 306 307 309 312 316 318 317 319 319 318 317 316 318 320 320 320 320 319 318 318 317 317 317 317 317 317 316 316 316 316 317 317 318 319 318 316 316 318 320 320 320 320 320 319 319 319 318 318 319 319 319 319 320 320 318 315 315 316 318 319 319 319 319 319 320 317 313 313 314 314 314 312 310 309 308 308 307 306
307 307 307 307 308 308 309 308 307 306 306 307 309 312 316 318 317 318 318 319 320 319 318 319 319 319 319 319 318 318 318 318 317 317 317 317 316 317 317 316 317 318 318 318 318 316 317 318 319 320 320 319 319 318 318 318 318 318 319 319 320 320 320 320 317 314 314 315 317 319 318 319 319 318 320 319 315 315 315 314 314 313 311 310 309 308 307 306
307 307 308 308 308 309 309 308 307 307 307 307 309 311 314 316 317 317 317 319 320 321 320 319 319 319 319 318 318 317 318 319 319 318 317 316 316 317 317 317 317 319 317 316 318 319 319 319 319 320 319 318 317 317 317 317 317 318 319 319 319 320 321 320 317 314 314 314 317 318 317 318 318 318 319 319 316 315 313 312 312 311 310 310 308 307 306 305
307 308 309 309 309 309 309 308 308 308 307 308 309 310 313 316 317 317 318 320 320 321 321 320 319 320 319 319 318 318 318 319 320 319 317 317 317 317 317 317 318 318 317 317 318 319 321 319 318 319 318 317 318 317 317 317 318 319 319 319 319 320 320 319 318 315 314 315 315 316 317 319 320 320 320 316 312 311 310 309 309 309 309 309 308 307 306 305
308 308 308 309 309 309 309 309 309 308 308 308 308 310 314 316 317 318 318 319 320 321 321 320 319 320 319 319 319 318 318 318 319 319 318 317 316 317 317 317 318 318 318 318 317 319 320 317 316 317 316 317 318 317 318 318 319 320 320 320 319 320 320 319 319 317 318 319 316 316 321 322 321 322 321 315 311 312 310 309 309 309 308 307 306 306 305 304
310 308 308 309 310 310 311 312 311 308 308 308 307 310 314 316 318 317 316 318 319 320 320 320 320 319 319 319 318 318 318 318 319 319 318 317 316 316 316 316 317 317 318 318 318 319 318 315 315 317 317 317 318 318 319 318 319 321 321 319 318 319 319 319 318 318 321 322 317 315 320 323 321 321 321 315 313 313 311 309 310 309 308 307 306 305 304 304
312 310 308 309 310 310 313 314 312 309 310 309 308 311 315 317 317 316 315 317 320 320 320 319 319 319 319 319 318 318 319 318 317 317 317 317 316 315 316 317 316 316 316 318 319 319 317 315 315 317 317 318 318 318 319 318 319 321 320 318 318 318 319 319 319 319 320 321 317 315 318 321 321 321 320 316 315 316 313 311 310 310 309 307 306 306 304 303
316 312 309 309 310 310 312 314 313 310 310 311 310 312 316 318 317 316 316 318 321 322 321 318 317 317 317 318 318 318 317 317 317 317 316 315 315 315 316 317 317 316 316 318 320 320 317 316 317 317 317 318 319 319 319 317 318 320 316 316 317 317 319 319 319 320 319 320 320 318 318 320 321 321 320 318 317 319 318 315 312 310 309 307 306 306 304 303
319 315 310 310 311 311 312 315 315 311 310 312 312 314 317 317 317 318 318 319 321 321 319 317 316 316 316 317 317 317 315 315 316 315 314 314 314 314 315 317 318 318 316 316 320 320 316 314 315 316 318 319 317 316 317 317 318 317 315 316 316 316 317 318 319 320 319 319 321 320 319 321 322 321 320 319 318 319 320 318 314 311 308 307 306 305 303 302
321 317 312 311 313 313 313 316 316 312 311 313 314 315 317 317 316 318 320 322 322 320 316 316 316 316 317 317 316 316 315 314 313 313 313 313 313 314 315 316 317 317 316 316 318 317 313 310 312 315 316 317 314 312 313 315 315 315 316 317 317 317 316 317 317 318 319 321 321 320 319 320 322 322 320 320 318 319 319 316 313 310 308 307 306 304 303 302
321 319 313 311 314 314 314 315 315 313 313 314 316 317 317 318 318 319 321 322 319 319 315 315 316 316 317 318 318 317 315 314 313 313 313 312 313 314 314 316 316 317 317 316 317 317 314 313 314 314 314 314 314 312 311 312 314 316 317 318 319 319 317 317 318 317 321 324 321 319 319 320 322 322 320 320 317 316 316 315 312 310 308 307 305 304 302 302
321 321 316 312 313 314 314 315 314 313 315 316 317 318 318 319 321 322 321 316 314 318 319 316 316 316 317 319 320 317 315 315 313 314 315 314 314 314 315 317 317 319 320 319 319 318 317 316 316 314 312 313 316 316 313 312 313 316 317 318 321 322 320 321 321 318 321 322 316 314 318 321 321 320 320 320 316 313 313 313 312 310 308 307 305 304 302 302
321 320 317 314 313 314 315 315 314 314 316 318 318 318 319 321 322 322 319 315 316 319 319 317 316 317 318 320 320 317 316 315 314 315 316 316 316 316 316 317 318 320 323 321 320 320 320 319 317 315 313 313 315 318 316 315 314 315 318 319 322 324 325 325 324 322 323 319 312 312 316 319 319 318 319 318 314 310 310 309 310 310 308 306 305 303 302 302
321 319 317 316 314 315 316 316 316 316 318 319 318 319 321 322 321 320 320 318 318 318 317 317 317 318 319 320 318 316 317 316 314 315 316 316 317 318 317 317 317 320 321 321 322 322 323 322 318 317 316 314 314 317 319 318 315 315 318 319 321 324 326 327 325 324 324 318 312 313 316 318 318 316 314 312 308 307 306 306 307 308 307 306 304 303 302 302
321 319 318 317 315 315 316 316 318 318 318 319 318 320 322 322 320 319 320 320 318 316 316 316 318 319 320 319 315 315 317 317 314 314 315 317 318 319 319 318 317 319 320 322 322 321 323 324 319 316 315 314 315 317 318 319 317 316 317 319 321 321 323 323 320 318 317 317 314 314 316 318 317 314 310 307 307 306 305 305 305 306 306 305 304 303 302 302
321 319 318 317 317 317 316 317 318 318 318 319 319 321 322 320 319 319 319 319 318 316 316 318 319 320 321 319 316 315 316 316 315 315 316 317 318 318 319 319 317 317 320 321 322 322 322 322 317 314 313 313 314 316 316 318 318 317 317 319 318 317 319 321 319 315 314 319 320 316 315 316 316 315 310 307 307 306 305 306 306 306 306 305 304 303 302 302
319 320 318 317 318 318 317 317 318 318 318 318 320 321 320 319 319 319 319 319 318 317 318 320 320 320 322 321 318 316 315 316 316 316 317 317 318 318 318 319 319 317 318 320 321 322 322 321 315 313 315 312 310 313 314 315 316 316 317 318 316 315 316 318 320 319 319 322 322 318 318 318 318 318 313 309 309 307 306 306 306 306 305 305 305 303 303 302
319 319 318 318 318 319 318 318 318 318 317 317 319 320 319 319 318 317 319 319 318 318 319 320 320 321 322 322 321 317 316 317 316 316 318 318 319 319 317 318 319 317 318 319 320 320 321 322 316 312 314 311 308 312 315 313 313 314 315 316 316 318 318 318 320 322 323 324 323 320 319 318 319 318 314 313 313 311 307 306 306 306 305 305 305 304 303 302
320 319 318 318 318 319 319 318 318 317 317 318 320 320 319 318 318 317 319 319 318 318 319 319 320 320 321 322 322 318 316 318 318 317 319 319 319 319 317 318 318 317 317 317 318 318 318 322 319 311 311 311 310 313 316 315 313 311 312 315 316 318 318 319 320 320 322 323 323 323 321 319 319 318 316 316 315 313 310 307 306 307 306 305 305 304 304 303
319 318 318 319 319 319 319 318 317 317 318 319 320 320 319 319 318 318 319 319 318 318 319 320 320 320 321 321 322 319 317 319 318 317 319 319 319 319 317 317 318 317 317 316 317 318 317 319 320 312 309 312 313 314 316 317 315 312 313 315 316 316 315 316 318 319 319 321 323 323 322 320 318 317 318 317 316 315 312 309 308 308 307 306 306 305 304 303
319 319 319 319 319 319 319 317 317 317 318 319 320 319 319 319 319 319 319 319 319 318 319 320 320 320 321 321 321 320 318 319 319 318 319 319 319 319 317 317 318 316 316 316 316 317 317 318 320 315 311 313 315 314 314 315 315 314 314 315 316 316 316 317 320 319 318 319 321 321 323 321 316 314 315 316 317 316 313 311 309 309 308 307 306 305 304 304
318 319 319 319 319 319 318 316 316 317 318 319 319 319 320 319 319 320 319 318 318 319 319 319 319 320 321 321 321 321 319 319 319 319 320 320 319 320 318 317 317 315 315 316 315 316 317 317 318 318 315 315 314 311 310 311 312 313 314 315 317 317 317 319 322 320 317 317 318 318 320 320 313 310 310 311 313 313 313 313 311 309 309 307 306 305 305 305
318 319 319 319 319 319 318 317 317 317 318 318 318 319 320 319 320 320 319 318 318 319 319 319 319 320 321 321 321 320 320 320 320 319 319 320 319 319 318 317 316 315 316 316 316 316 316 316 317 319 317 315 312 311 310 310 310 313 314 314 316 317 318 319 318 317 317 318 318 318 320 320 312 308 308 306 306 308 309 311 311 309 308 307 306 305 305 305
317 318 318 319 319 319 318 318 318 317 316 316 317 319 319 319 320 319 319 319 318 318 319 319 319 319 320 320 320 319 319 320 321 320 319 320 319 318 317 316 315 315 317 318 317 316 316 317 317 319 320 318 316 314 313 311 311 313 314 314 315 316 318 318 315 314 317 319 319 319 321 320 312 307 306 306 305 306 307 307 308 308 307 306 305 305 304 304
317 317 317 318 318 319 318 318 317 315 314 315 316 317 318 319 319 319 319 319 318 318 319 319 319 319 319 320 320 319 319 320 321 321 320 320 319 316 316 316 315 315 317 318 317 316 318 318 317 319 322 323 322 320 318 315 312 312 313 314 315 315 317 318 316 316 318 320 319 320 320 318 312 308 308 307 307 307 307 305 305 306 306 305 304 304 304 304
316 316 316 316 316 317 317 317 316 315 314 314 314 315 317 318 319 319 319 319 319 319 319 319 319 319 319 320 320 320 319 319 320 321 320 319 319 316 315 315 315 315 316 315 315 315 316 318 318 320 322 323 323 323 320 318 315 314 314 314 315 316 316 317 317 318 319 319 319 320 319 317 313 310 310 310 308 309 308 306 304 304 304 304 304 304 304 304
315 315 315 315 314 315 316 316 316 316 314 313 314 314 315 317 318 319 319 319 319 318 319 319 319 320 320 320 320 320 320 319 320 320 320 319 318 314 312 312 313 314 314 313 314 314 314 317 318 319 320 321 322 321 319 318 317 316 316 315 314 315 316 317 317 318 318 318 319 319 320 320 316 312 312 312 309 309 309 308 306 304 304 304 303 303 303 304
313 314 314 314 314 314 314 315 316 317 315 314 314 315 315 316 317 319 319 319 319 319 319 320 320 319 319 319 320 320 320 320 320 320 320 320 318 314 312 312 312 312 312 311 311 313 315 317 318 319 319 318 319 319 317 317 317 317 317 316 315 314 315 316 316 317 317 318 319 319 320 320 317 313 312 312 310 309 310 310 308 306 305 304 303 303 304 304
312 313 313 313 314 313 312 312 313 315 316 315 315 315 316 316 316 317 319 319 320 319 319 320 319 319 318 318 319 320 320 321 321 320 320 321 319 316 315 315 312 310 311 311 309 310 314 315 317 319 319 318 318 318 317 316 317 317 317 317 316 315 315 315 315 315 316 317 318 319 319 319 317 315 313 312 311 311 310 309 308 306 305 304 304 304 305 305
312 312 312 312 312 310 310 311 312 313 315 316 316 315 315 316 316 315 317 319 319 319 319 319 319 318 319 319 319 320 320 320 321 321 320 320 318 316 316 317 314 310 310 311 310 310 312 314 317 318 318 318 318 317 318 317 316 317 317 317 317 316 315 315 315 314 315 316 316 317 318 318 316 315 313 312 311 310 309 308 307 306 305 304 305 306 306 307
311 311 311 311 311 310 310 310 310 310 312 314 315 315 315 316 316 316 317 317 318 319 319 319 319 319 319 319 319 319 319 319 320 320 320 319 318 316 316 317 317 313 311 311 312 312 312 314 317 317 317 318 317 317 318 316 315 316 316 316 316 316 315 314 314 314 314 315 315 316 317 316 315 315 312 308 308 308 307 306 306 305 305 306 307 307 307 308
309 310 310 310 310 310 310 310 309 309 311 313 314 314 315 315 315 316 317 317 317 318 318 319 319 319 320 320 320 319 319 319 319 319 318 318 317 316 315 315 315 314 312 311 311 312 312 313 314 315 317 318 317 317 317 315 315 316 316 316 315 315 315 314 314 314 314 314 315 316 316 315 313 314 313 309 307 307 306 306 306 305 306 307 308 308 308 308
Wind_Speed
8 7 6 6 6 6 6 6 6 6 6 6 6 7 7 7 7 6 6 5 4 3 2 1 1 2 2 3 3 5 6 7 9 8 7 5 5 4 4 4 5 4 3 3 3 3 3 2 3 2 1 1 2 2 2 3 1 2 3 4 3 2 2 3 4 2 2 5 8 8 4 3 3 4 1 2 4 4 3 4 2 3 4 6 6 7 9 9
8 7 7 6 6 6 6 6 6 6 6 6 7 7 6 7 6 6 5 5 4 3 2 1 2 2 3 3 4 6 7 9 8 6 7 5 4 4 5 6 6 4 3 3 2 1 2 2 2 1 1 1 2 1 1 2 2 2 2 3 1 2 3 2 3 3 2 3 6 6 3 1 0 3 1 4 4 4 5 6 6 4 3 5 7 7 7 5
8 8 8 7 7 7 7 7 7 7 7 7 7 7 6 6 6 5 5 4 3 3 2 2 2 3 3 4 6 7 8 8 4 2 4 0 4 7 9 8 7 5 5 4 2 1 2 2 1 1 3 2 2 1 1 1 2 1 3 3 2 5 5 4 3 4 4 3 2 3 3 2 1 1 2 3 4 6 5 4 6 5 5 3 7 6 5 3
8 8 8 8 8 8 8 7 7 7 7 7 7 6 6 6 6 6 5 4 3 3 2 2 3 3 4 5 7 8 9 6 1 2 2 7 10 11 10 8 6 6 6 5 3 1 1 1 1 1 4 2 2 1 0 2 2 1 3 2 5 3 3 4 3 3 3 3 2 1 0 3 1 1 3 3 6 6 2 5 3 4 4 4 7 5 4 3
8 9 9 9 9 9 8 8 7 7 7 7 7 6 6 6 6 6 5 4 4 3 3 3 3 4 5 7 7 8 8 4 3 4 7 10 10 10 8 5 4 4 6 6 5 3 0 1 1 2 4 1 2 2 2 3 3 2 1 4 5 1 2 5 3 3 2 2 2 2 3 3 1 3 5 6 6 2 4 4 4 3 4 6 6 4 3 2
9 9 9 9 9 9 9 9 8 8 7 7 7 7 6 6 6 6 5 5 4 4 3 3 4 5 6 7 7 7 7 3 3 5 7 7 7 6 3 1 2 4 6 7 5 3 1 2 3 3 3 1 1 1 3 2 3 2 3 4 3 2 2 4 2 1 1 2 3 3 3 4 5 7 6 6 6 2 4 5 6 7 7 6 5 5 3 2
9 9 9 9 9 10 9 9 9 8 8 7 7 7 7 6 6 6 5 5 4 4 4 4 5 6 7 7 7 6 5 2 2 5 4 4 5 4 4 4 5 5 6 5 3 2 1 3 3 2 4 2 0 1 2 1 3 4 1 4 2 1 0 2 2 2 2 4 4 3 5 7 8 6 4 4 6 8 9 8 8 8 8 7 6 5 3 4
9 9 9 9 9 9 9 9 9 8 8 7 7 7 7 6 6 6 6 5 4 4 4 5 6 6 7 6 6 5 5 4 5 7 6 7 7 7 7 7 7 6 5 2 1 2 2 3 3 2 4 1 1 1 1 2 4 3 1 4 2 1 3 2 3 4 5 6 5 5 7 10 8 5 6 5 8 11 10 8 9 8 7 8 6 5 5 5
10 9 9 9 9 9 9 9 9 9 8 8 7 7 7 6 6 6 6 5 4 5 5 6 7 6 7 5 5 6 4 5 6 7 8 8 9 9 9 8 7 5 4 2 1 1 2 2 2 3 3 2 1 0 1 3 2 1 2 2 1 3 4 4 6 7 7 7 6 6 10 10 6 6 7 7 11 11 8 8 8 7 7 7 6 6 6 6
11 10 9 9 9 9 9 9 9 9 8 8 8 7 7 7 7 7 6 5 5 5 6 7 6 6 6 4 5 5 2 4 5 5 6 6 7 8 7 6 6 4 3 3 1 2 2 2 2 3 3 1 1 0 0 3 1 2 2 3 5 6 6 6 7 7 7 7 9 8 10 5 4 5 5 8 13 12 8 9 8 8 8 8 7 8 8 6
12 11 10 9 9 9 9 9 9 9 9 9 8 8 8 8 8 7 6 6 6 6 6 7 7 7 6 4 6 6 2 4 5 4 5 4 5 6 5 5 4 3 2 2 3 4 4 3 3 3 2 1 1 1 1 1 1 2 3 6 8 8 8 10 9 8 6 6 9 10 9 4 5 5 5 9 12 11 9 9 10 10 9 10 10 10 8 6
13 12 11 10 9 9 9 9 9 10 10 10 9 9 9 9 8 8 7 7 7 7 7 7 7 7 6 6 9 10 7 8 7 6 6 5 6 5 5 5 4 4 3 2 4 5 5 4 4 2 1 1 1 2 1 1 1 3 4 6 6 7 10 11 9 7 7 5 6 6 7 8 10 7 6 10 11 11 10 9 10 11 12 12 11 10 7 4
14 13 12 11 10 10 10 10 10 10 10 10 10 10 10 9 9 8 8 8 8 8 8 8 7 7 7 8 10 11 11 12 11 10 9 8 8 7 6 6 5 5 4 5 6 5 5 4 4 3 3 3 2 0 0 1 1 4 4 4 6 8 7 7 6 5 7 4 6 6 6 8 10 10 9 9 11 12 11 9 10 10 11 11 10 8 7 6
16 14 13 12 12 11 11 10 11 11 11 11 11 11 11 10 10 10 9 9 9 8 8 8 8 7 7 8 10 12 12 11 12 12 11 10 9 8 8 8 7 7 6 7 7 5 5 4 4 4 4 3 0 1 3 3 4 4 3 3 5 6 2 8 7 6 7 5 6 6 6 6 6 10 9 10 11 13 11 11 11 10 10 11 10 8 8 8
18 16 15 14 13 12 11 11 11 11 12 11 11 12 12 11 11 10 10 10 9 9 9 8 8 7 7 10 11 12 13 13 14 13 12 11 9 8 8 8 7 7 7 8 7 5 5 3 3 3 2 2 2 3 5 4 5 4 4 4 4 4 2 7 8 6 3 4 8 7 6 6 5 9 9 11 12 12 10 11 11 10 10 10 9 8 8 9
19 18 17 15 14 13 12 12 12 12 12 12 12 12 12 12 12 11 11 10 10 9 8 7 8 7 6 9 10 11 12 13 14 13 13 12 10 9 8 7 7 8 8 7 6 5 5 4 3 3 2 3 4 4 5 5 5 5 5 6 4 5 4 3 6 4 2 5 9 10 6 6 3 9 9 11 12 11 10 10 10 10 10 9 9 9 9 9
21 20 18 17 16 15 14 13 13 13 13 12 12 13 12 12 12 12 11 10 10 9 7 7 6 7 8 10 9 10 13 14 12 11 12 11 10 9 7 7 7 8 6 5 5 4 5 4 3 4 4 5 5 4 4 5 5 4 5 5 6 7 6 4 3 5 4 4 7 10 9 10 3 9 10 11 13 12 11 11 11 10 10 9 10 9 9 8
21 21 19 18 17 16 15 14 14 14 13 12 13 13 12 12 12 12 11 11 9 7 7 8 5 4 8 13 11 9 11 12 12 11 10 10 10 10 9 8 7 7 6 5 5 6 5 4 3 4 5 5 5 5 6 6 5 4 3 3 5 6 7 8 3 4 5 5 7 9 10 13 9 8 12 12 14 14 14 13 11 10 10 9 9 9 9 9
22 22 20 19 18 17 16 16 15 14 13 12 13 12 11 10 10 11 12 11 9 5 4 8 12 5 2 8 12 12 10 9 9 11 11 11 11 10 10 8 7 8 7 5 6 8 6 4 4 6 6 7 9 9 10 9 6 6 6 6 7 6 7 7 1 4 2 4 8 11 11 12 13 9 11 14 15 15 15 13 11 10 9 9 8 9 10 10
23 22 21 20 19 17 16 17 16 15 14 13 13 11 8 7 6 7 11 15 17 15 8 6 12 11 4 2 8 10 8 7 8 10 11 12 11 10 8 8 8 8 7 6 6 7 6 6 6 8 8 9 11 13 13 9 5 6 7 8 9 8 8 6 1 4 1 4 9 11 12 14 14 13 10 14 16 14 15 14 13 11 10 9 9 9 11 11
23 22 22 21 20 18 18 18 17 16 15 15 14 11 6 6 6 3 6 13 19 20 19 14 12 13 10 7 7 8 7 7 8 10 11 11 13 11 9 10 8 7 8 6 4 4 5 7 9 12 11 9 8 10 12 9 6 8 8 8 8 8 9 6 3 4 3 3 9 12 13 16 14 14 15 11 14 14 17 17 15 14 11 10 10 11 12 13
22 23 22 21 21 19 18 18 18 18 17 16 17 15 10 9 11 6 4 8 12 15 19 20 20 18 16 15 12 10 9 7 8 12 12 14 15 11 10 12 9 6 8 7 4 3 6 9 12 13 7 4 4 5 9 10 9 9 7 7 8 6 8 5 5 5 3 3 7 10 11 15 14 14 17 14 16 16 17 17 15 14 14 12 13 14 14 15
22 22 22 22 22 19 19 19 18 20 19 18 18 19 15 11 11 10 8 8 10 14 18 21 24 22 20 20 18 16 13 11 10 14 16 16 16 13 11 11 10 8 8 10 8 6 6 7 11 11 5 4 5 6 7 8 8 8 7 7 7 6 6 5 4 4 5 5 6 9 9 12 14 14 17 15 13 10 9 11 11 12 13 12 14 16 15 16
21 22 22 22 22 20 20 18 19 21 20 20 20 20 17 11 8 7 7 7 9 12 17 20 22 21 21 21 21 19 17 15 12 14 20 20 16 13 12 12 12 9 9 12 14 13 9 2 3 7 7 7 8 7 8 7 7 9 10 9 8 8 8 7 3 2 5 8 7 7 9 10 12 14 14 6 4 3 5 8 10 13 14 13 14 17 15 14
22 23 22 23 23 21 19 18 20 22 20 21 21 20 17 12 7 3 3 7 8 8 12 17 18 20 23 22 20 16 14 16 15 13 20 23 17 11 9 11 11 9 12 14 13 14 11 3 6 6 6 7 9 7 9 8 7 8 10 12 12 12 11 10 6 2 5 7 5 5 7 6 4 8 8 6 5 6 8 11 13 16 17 16 15 15 15 15
22 23 22 24 24 20 18 18 20 21 20 22 21 18 17 12 7 3 1 4 8 5 6 11 13 13 18 20 20 14 7 12 17 17 19 24 22 13 7 8 7 7 9 11 9 7 4 5 5 6 6 7 8 8 9 9 8 7 4 7 12 12 11 11 8 4 5 5 2 4 7 6 3 6 5 7 7 9 10 12 15 17 17 17 15 13 15 17
22 22 23 25 25 24 21 18 19 21 19 20 20 18 16 12 8 4 2 5 8 7 10 9 10 11 12 16 23 17 2 7 15 17 22 24 23 16 9 7 6 5 3 2 5 3 4 7 5 6 7 7 8 9 9 10 8 5 2 0 6 8 9 9 8 7 6 6 2 6 6 7 8 10 6 7 7 9 11 12 14 16 17 17 16 14 15 17
22 22 23 26 27 28 24 17 19 22 19 15 17 18 15 14 12 6 2 6 3 9 9 7 9 12 13 17 24 15 3 9 9 12 23 25 20 13 11 12 8 8 8 6 6 1 4 8 8 9 9 8 8 6 6 11 9 2 4 2 1 2 5 6 7 7 6 6 6 7 6 6 8 8 7 8 9 12 13 13 14 16 17 17 17 16 16 17
22 21 24 27 27 27 23 16 17 20 17 13 17 19 18 18 12 4 3 6 2 6 5 8 9 10 15 17 17 9 4 5 1 7 19 21 18 10 6 11 10 9 11 12 10 1 3 2 3 7 8 7 4 2 2 7 6 2 5 4 4 1 1 2 5 5 5 7 8 8 9 7 8 6 7 7 8 12 10 7 10 16 17 17 17 17 17 17
22 22 25 27 28 28 24 19 17 16 15 16 20 23 23 17 8 4 6 6 3 4 5 9 9 10 16 15 9 8 6 2 4 10 11 9 13 8 1 4 6 5 7 9 9 1 4 3 2 3 4 1 4 7 6 1 3 7 5 3 2 2 2 2 4 3 5 9 10 12 14 10 7 4 6 6 3 5 4 4 8 13 17 18 18 19 19 19
24 22 25 30 31 30 28 24 21 18 18 21 25 28 23 10 2 7 9 2 1 3 6 7 7 12 18 14 8 11 9 4 8 13 8 5 8 8 4 5 4 4 5 6 7 4 4 3 1 3 2 3 6 5 4 3 4 5 4 3 3 3 2 3 5 4 7 10 5 8 13 14 9 4 5 4 3 3 2 5 8 12 16 18 18 19 20 21
29 25 26 31 33 32 31 28 23 22 21 23 31 31 17 5 3 9 7 4 1 6 9 9 9 12 17 13 8 10 9 6 10 11 8 7 8 9 10 8 7 6 6 7 6 4 5 8 6 4 4 7 6 3 3 2 3 5 5 6 5 4 3 5 5 5 8 6 1 2 7 10 11 8 9 5 4 5 3 5 7 13 17 18 18 19 20 23
32 30 29 32 33 34 33 26 23 24 23 28 35 23 7 5 9 13 11 5 2 3 7 10 11 12 15 12 6 9 7 5 10 10 8 9 8 9 12 11 11 8 4 6 7 4 3 6 9 7 4 11 12 7 5 4 6 9 8 7 7 5 6 8 7 7 7 3 2 2 3 6 7 7 13 10 4 8 6 7 7 12 16 17 18 19 21 24
35 33 34 35 34 34 33 29 25 26 27 34 31 13 3 9 11 12 15 10 2 4 6 9 12 11 12 8 5 9 6 4 11 9 7 10 8 8 11 13 16 10 2 4 5 7 6 3 9 10 6 14 17 13 9 5 7 11 8 7 8 6 7 8 6 7 5 1 2 3 4 5 4 2 3 3 7 8 7 7 8 11 13 16 17 18 22 26
37 36 36 36 35 35 36 34 30 28 33 34 21 7 7 10 10 12 13 8 5 5 6 10 11 10 9 5 4 9 4 2 10 9 6 10 8 9 11 11 16 13 7 6 4 6 8 5 8 8 5 14 17 14 11 6 5 7 6 8 9 6 6 7 3 1 2 2 2 5 4 5 3 2 5 6 6 7 7 7 9 11 12 15 17 18 23 28
38 40 40 39 40 38 38 39 34 34 38 30 12 7 11 10 8 7 8 8 8 8 10 9 8 7 8 5 5 8 3 0 9 8 6 10 9 10 11 9 15 17 12 9 3 4 6 3 6 5 3 9 8 8 11 7 3 5 7 9 4 1 3 6 2 2 0 7 5 6 5 5 3 3 6 7 5 7 7 7 9 11 13 14 15 18 24 29
37 42 44 45 44 39 40 43 40 41 40 25 10 10 11 11 9 5 7 11 12 14 12 6 7 8 9 6 6 11 6 3 9 8 5 7 7 11 13 10 15 20 17 11 4 3 4 2 4 5 5 4 2 1 6 3 1 4 6 6 3 3 3 4 5 2 4 10 6 6 9 7 6 5 5 7 6 7 8 8 9 11 13 14 15 19 24 28
39 42 46 49 46 42 43 45 45 47 37 16 11 15 10 12 16 12 11 13 14 16 11 9 9 9 10 8 7 13 11 7 10 8 6 7 6 11 16 11 13 21 22 14 3 1 4 3 3 3 2 4 3 1 4 4 3 1 1 1 3 3 5 5 5 5 7 10 7 7 11 9 8 6 6 9 11 11 11 10 10 11 14 16 17 19 22 26
44 38 40 49 50 44 44 47 50 47 27 9 10 15 11 13 19 20 18 15 13 13 12 12 10 9 11 11 8 13 14 10 11 9 7 7 5 11 18 12 11 19 23 16 4 1 4 5 3 0 1 5 5 5 7 8 6 1 2 3 3 2 4 5 6 4 6 8 8 8 9 7 8 9 11 14 14 13 14 12 11 13 17 19 20 22 25 29
45 28 27 44 50 45 46 50 47 32 13 10 15 12 9 11 15 23 26 19 12 12 11 12 13 11 11 13 10 11 12 11 11 9 8 9 7 8 15 13 9 13 19 17 7 2 4 5 4 0 1 4 6 8 11 11 9 6 6 8 6 3 1 3 5 5 5 7 7 8 8 5 3 6 12 16 16 15 15 12 10 13 18 19 20 25 31 34
39 16 17 37 44 46 51 42 28 15 6 10 16 11 11 13 13 21 28 23 16 11 8 9 13 12 10 12 11 9 9 9 11 9 7 10 10 6 12 16 11 10 11 9 7 6 5 5 5 3 4 7 7 6 7 6 7 9 9 10 10 8 5 4 8 7 5 6 6 6 9 6 1 1 3 8 10 11 13 13 11 14 19 20 22 27 33 37
29 9 13 30 38 48 49 25 11 12 8 12 16 8 7 13 13 17 23 23 19 13 6 6 12 13 10 11 12 9 9 7 10 11 8 11 13 8 13 19 18 19 14 6 9 10 4 2 6 6 6 6 3 3 2 1 1 4 6 8 9 9 9 9 8 4 4 6 5 5 9 5 2 2 3 2 2 5 11 14 12 14 18 21 23 26 30 34
22 15 14 21 36 51 40 12 8 12 8 16 19 6 5 10 12 14 19 20 18 14 10 7 9 14 12 11 12 11 10 8 10 13 10 10 13 10 15 22 20 20 13 4 5 6 4 1 6 6 4 3 3 3 2 2 1 5 7 8 9 10 11 8 4 0 3 7 5 5 9 5 2 1 2 3 3 4 8 11 13 13 15 18 22 24 27 31
16 20 15 17 39 54 33 8 10 13 11 17 17 8 6 9 12 16 17 18 16 12 11 9 9 12 12 9 10 12 12 10 11 13 11 9 8 7 16 25 22 16 11 7 9 11 6 3 4 3 5 5 4 4 4 3 4 7 9 9 9 8 6 3 1 1 6 9 8 7 10 4 3 1 1 1 1 3 5 8 12 13 13 16 20 23 26 29
9 13 14 21 44 52 33 17 16 12 13 17 13 13 15 10 13 20 19 18 19 14 12 13 13 13 10 8 9 12 15 14 11 10 9 8 4 4 13 24 23 17 13 10 15 17 9 5 7 7 8 9 9 7 5 6 5 5 7 11 13 13 12 7 3 5 9 9 8 10 10 2 3 1 2 2 3 4 5 7 10 12 12 15 19 24 27 30
6 6 7 15 31 34 27 28 24 11 10 14 10 13 19 14 12 19 19 17 20 20 15 13 15 14 12 11 11 13 15 16 13 8 7 8 4 2 7 17 21 21 14 10 18 16 2 2 11 14 13 14 13 7 3 6 7 8 13 17 17 17 17 10 6 9 10 6 9 15 12 4 4 6 6 5 5 5 5 7 10 14 15 16 19 23 26 30
6 3 6 8 14 17 15 19 20 13 14 16 9 8 18 20 13 11 16 16 19 23 17 10 11 14 15 16 14 12 14 14 14 13 11 8 4 2 3 8 13 17 12 10 17 13 1 4 14 17 18 19 18 9 5 8 11 14 17 19 18 16 16 15 14 16 11 7 12 15 13 11 11 11 11 8 7 6 7 9 12 16 18 18 19 20 22 25
11 4 10 13 8 6 8 9 10 14 21 20 10 7 15 21 16 11 13 14 16 19 14 9 14 19 20 20 14 11 12 12 14 16 15 9 5 3 3 2 5 9 8 6 8 6 1 8 13 14 17 21 20 12 7 9 11 12 13 17 18 18 20 21 21 20 15 13 14 9 14 17 14 13 14 11 10 11 11 12 12 14 18 19 19 20 21 23
14 6 8 13 8 3 6 6 4 9 18 18 12 12 14 19 21 16 10 8 9 15 15 13 18 23 23 20 14 12 14 14 16 17 15 11 7 6 5 3 3 6 6 4 4 3 3 7 10 11 14 20 20 15 10 8 9 11 12 15 16 21 25 24 22 22 20 22 20 10 11 16 12 13 15 14 14 13 11 11 12 14 17 19 20 22 23 24
13 7 6 9 6 2 5 7 5 6 10 13 13 14 14 18 22 18 13 11 11 13 17 20 22 21 21 21 18 16 17 19 20 18 14 11 8 7 8 6 4 6 7 5 3 4 5 5 5 6 8 15 17 16 14 12 11 13 13 14 17 21 23 22 22 21 19 23 24 13 9 11 7 8 9 12 14 11 9 11 14 15 18 21 22 23 24 25
16 13 10 7 4 5 4 4 5 4 5 8 11 13 14 18 22 17 14 19 18 12 13 20 24 19 16 19 20 20 23 24 23 20 15 14 14 14 12 8 8 8 8 7 5 5 7 4 0 3 7 14 15 15 15 11 9 11 16 21 23 19 16 18 20 19 19 22 21 14 12 9 6 7 5 8 11 11 10 12 14 14 18 21 22 24 25 25
15 14 14 9 4 7 7 2 4 5 4 4 9 12 12 14 17 13 10 14 21 22 19 19 19 14 11 16 22 29 34 30 24 21 18 18 20 19 15 12 14 13 10 8 6 5 7 6 4 5 8 12 11 9 9 4 4 10 17 22 22 16 13 15 18 21 22 20 16 14 13 8 7 8 6 5 5 8 11 15 18 19 20 21 23 25 24 23
Wind_Direction
178 177 178 179 180 180 185 185 184 183 179 176 175 173 172 175 177 180 183 187 191 192 198 216 279 311 323 328 334 337 339 334 334 333 318 290 276 252 220 181 154 133 102 72 60 37 13 344 334 9 58 98 80 70 70 45 38 223 243 239 226 190 158 155 171 148 84 121 129 134 145 219 158 148 191 272 207 207 224 181 216 232 204 229 243 268 278 277
175 177 178 180 183 184 190 190 190 190 187 187 186 185 185 187 191 193 194 199 205 208 213 251 285 305 317 328 336 337 337 336 340 329 313 297 256 208 168 149 140 120 92 76 77 17 303 293 312 329 250 190 86 75 119 24 316 280 280 243 265 72 79 65 109 77 37 115 126 129 124 225 195 110 159 259 203 204 247 178 168 188 181 254 267 283 292 283
181 183 184 184 186 188 192 193 195 196 194 195 195 196 197 198 203 206 207 210 215 222 240 279 297 309 321 333 336 338 337 338 344 299 309 267 159 149 140 134 123 99 79 65 65 242 264 284 289 296 255 205 86 76 164 357 303 314 289 257 80 80 87 85 101 78 49 69 119 136 119 240 261 106 198 271 266 241 251 140 164 164 128 271 290 304 318 334
194 194 193 191 192 193 194 195 197 199 201 201 202 204 207 210 212 214 218 220 226 238 260 282 299 311 325 335 336 340 330 315 215 196 141 130 136 133 133 126 109 82 60 44 31 9 224 265 296 298 255 207 113 218 170 19 332 311 303 346 80 103 112 106 104 82 62 32 345 26 324 264 210 190 230 262 279 249 166 90 135 140 131 251 285 301 312 344
205 206 205 202 200 200 199 200 201 202 206 208 210 211 214 218 219 224 227 231 240 247 260 274 297 314 327 333 336 339 320 291 148 149 140 136 137 134 134 123 95 53 35 26 20 14 39 258 273 244 250 215 149 219 94 38 323 279 41 51 81 81 100 115 98 81 79 0 325 296 286 303 329 257 247 245 270 279 117 139 196 229 236 245 259 263 276 296
215 214 216 216 211 209 206 205 205 207 211 214 218 217 220 225 228 235 237 243 250 252 262 283 307 320 329 331 333 333 313 304 120 146 148 146 149 146 161 169 356 0 9 13 17 3 15 246 251 238 256 252 227 302 74 47 310 285 105 95 89 24 54 118 127 145 139 280 254 269 296 318 297 268 257 250 255 235 187 209 232 256 248 230 234 241 254 258
221 219 222 224 222 221 216 212 211 213 216 219 224 226 228 231 237 244 248 254 257 265 282 305 318 326 327 328 333 324 296 289 178 184 181 191 199 206 245 278 306 328 352 6 11 329 274 247 258 253 262 251 177 78 79 355 275 286 121 123 113 50 85 131 166 224 227 254 252 283 299 279 271 270 275 251 231 236 241 246 252 256 238 219 226 235 254 264
225 222 223 224 227 229 227 223 218 219 222 224 230 234 237 238 246 252 256 261 266 281 300 314 319 326 321 325 332 302 257 229 221 225 229 232 234 243 260 279 296 314 339 351 313 276 233 249 263 250 264 274 25 93 75 275 227 267 343 120 131 202 217 193 201 232 236 249 255 262 267 262 256 262 277 246 228 244 247 244 244 239 216 208 222 235 250 267
229 229 226 225 227 229 232 232 229 228 229 232 236 239 245 246 250 255 258 266 276 292 305 310 314 316 312 320 313 287 239 217 234 233 231 234 238 248 262 276 287 302 319 310 254 229 222 252 244 250 296 9 330 33 75 275 227 46 26 121 210 226 225 223 229 236 231 239 237 238 252 253 236 246 262 224 227 245 234 225 224 207 199 204 221 236 247 260
229 232 233 231 231 232 233 235 237 237 235 238 242 244 249 250 253 256 259 269 278 288 296 299 306 301 301 309 282 274 209 215 233 218 223 231 235 246 257 266 277 286 297 292 228 195 225 237 204 227 283 300 259 5 210 280 6 40 335 274 257 251 244 231 238 233 220 233 222 230 259 246 176 231 240 196 220 233 208 205 201 184 193 209 221 233 243 249
228 231 235 236 237 238 237 240 243 244 244 244 247 249 252 254 256 258 261 268 272 280 286 288 292 287 287 279 263 266 223 231 240 225 229 227 229 242 249 256 266 263 260 261 227 197 205 204 179 210 247 212 189 180 229 287 22 353 306 285 251 239 241 227 231 223 208 230 216 226 262 232 156 221 214 179 203 204 181 187 191 191 201 212 222 230 236 242
231 231 234 238 241 243 243 245 246 249 251 251 251 252 253 255 257 261 262 265 269 273 277 278 280 276 276 264 253 255 256 257 256 245 236 233 237 241 247 250 247 242 218 221 235 209 198 183 172 224 289 318 240 180 150 129 337 306 285 291 266 245 243 220 209 206 207 218 190 206 260 237 206 199 167 174 188 174 168 178 185 199 210 217 225 231 241 255
238 235 235 237 240 244 247 248 249 251 254 257 258 256 255 256 258 260 261 263 266 268 271 273 272 269 271 264 249 251 257 258 255 252 247 245 245 244 246 246 240 239 210 205 224 212 207 195 184 229 272 284 277 210 47 129 270 287 254 279 293 272 242 181 160 178 200 189 162 188 266 250 202 164 147 175 184 169 173 180 183 200 214 223 228 237 259 271
244 243 241 240 241 244 247 250 251 252 255 258 260 261 260 258 257 258 259 261 262 265 266 264 266 266 264 262 256 255 255 252 249 248 248 245 245 247 246 244 242 240 222 213 219 213 217 210 201 225 237 258 273 179 253 209 220 268 261 243 263 274 201 137 148 176 186 171 168 199 263 263 159 139 153 173 175 172 180 184 183 193 207 224 233 240 258 265
247 247 245 245 246 246 247 249 251 251 252 254 257 261 262 260 259 258 257 258 258 258 259 261 261 261 263 261 259 258 252 245 245 244 245 244 241 242 242 242 239 231 220 217 217 218 222 203 214 228 180 186 187 219 248 231 220 231 256 253 224 242 189 141 152 175 182 158 183 205 252 254 150 138 163 168 174 181 188 190 186 190 202 220 233 238 251 258
246 247 247 248 248 250 251 250 250 249 249 250 252 256 258 260 260 258 257 255 256 254 253 260 253 247 264 260 252 256 250 241 242 242 240 240 235 235 240 235 226 222 219 220 221 220 215 192 209 222 167 189 210 230 255 251 237 210 230 265 249 243 252 172 144 160 160 144 191 214 253 277 143 138 167 172 180 191 198 200 192 194 203 212 224 234 245 254
243 244 246 248 249 251 251 251 251 249 246 244 246 251 254 258 259 258 257 251 252 250 245 253 253 250 254 251 250 252 247 241 239 237 235 235 231 226 223 209 206 214 210 209 211 196 186 177 189 212 211 227 226 226 247 249 246 218 205 247 262 254 260 256 154 138 163 179 215 219 237 269 230 143 168 185 186 194 210 212 202 201 202 207 220 233 239 242
240 242 244 245 247 249 250 252 251 249 246 239 240 245 246 251 255 255 253 249 246 249 252 237 224 258 248 235 232 232 240 242 236 235 231 225 220 207 197 198 191 179 177 185 185 178 182 183 204 235 222 218 218 213 222 239 270 283 246 259 275 251 245 259 244 135 172 210 236 231 232 256 252 176 170 189 195 200 215 218 210 206 199 207 221 228 230 229
237 239 241 243 244 246 249 251 249 248 244 236 236 238 242 248 254 257 251 239 217 205 258 219 202 220 264 221 222 225 237 238 226 226 222 214 207 195 190 190 177 172 179 183 179 183 191 184 200 237 230 212 214 213 225 246 285 311 298 291 291 272 259 266 253 107 163 241 248 251 252 258 260 233 181 180 193 203 216 219 212 205 200 206 211 218 228 227
234 235 238 240 241 243 245 247 248 245 236 231 228 223 232 234 241 251 234 228 226 224 244 228 209 227 258 238 224 223 224 221 214 212 215 209 190 178 178 172 171 192 209 202 183 175 191 208 215 225 228 227 223 220 233 258 289 295 290 281 275 270 269 268 163 111 112 258 256 258 264 265 265 263 231 191 188 201 213 214 212 207 204 205 201 213 225 224
232 232 233 236 238 239 241 243 244 240 231 226 216 203 212 221 222 226 208 234 245 240 242 238 223 227 235 242 231 212 198 199 207 207 207 196 178 172 176 176 181 205 210 196 159 141 191 223 228 231 239 246 238 226 235 253 265 266 272 274 268 261 268 266 166 133 136 234 265 267 268 268 262 266 263 217 184 203 213 215 219 211 202 202 204 216 224 227
231 230 230 232 234 234 237 239 239 237 230 221 210 201 207 217 219 228 250 264 261 249 242 237 234 234 235 238 233 218 204 194 203 210 201 181 179 187 179 182 204 207 181 169 152 169 211 229 234 238 242 234 232 232 240 249 254 257 258 261 263 260 270 260 159 149 180 219 271 277 272 272 266 263 264 234 201 210 216 217 222 207 196 197 204 213 217 225
231 229 226 227 229 229 232 234 233 232 226 218 212 208 212 219 223 239 263 278 270 250 239 236 236 235 230 233 232 220 213 213 210 208 200 181 182 200 189 187 215 209 174 187 207 215 221 234 235 227 196 183 221 227 234 245 248 246 243 247 253 249 258 254 173 157 203 228 276 290 282 274 270 260 256 238 208 200 196 202 208 195 192 195 204 213 214 219
230 226 225 225 225 224 225 227 225 227 223 217 216 213 212 218 222 243 261 271 270 243 233 235 235 229 222 228 232 219 215 227 223 207 202 190 179 194 201 204 220 217 201 207 216 230 239 218 169 192 187 213 229 217 217 235 246 238 233 237 249 249 245 249 240 175 224 234 243 271 282 273 261 249 243 219 153 163 181 201 211 204 205 202 202 208 208 209
228 226 223 221 221 219 218 218 217 222 222 216 219 214 209 211 209 238 270 267 259 225 226 232 229 227 221 222 225 211 215 231 224 211 206 196 183 181 199 210 220 224 219 216 222 241 242 139 126 179 183 206 224 224 212 218 250 250 231 225 239 255 257 258 269 285 276 260 198 212 272 279 250 238 223 153 157 207 195 208 218 211 208 205 202 202 200 199
225 226 221 217 215 206 203 212 217 220 219 217 217 207 204 201 192 209 212 273 261 197 184 209 212 218 213 211 203 186 218 230 211 212 207 198 193 187 191 198 209 236 230 221 231 253 230 134 147 193 189 203 223 238 221 211 243 264 246 216 230 253 262 263 267 259 274 289 156 183 261 282 276 260 223 156 186 204 188 207 214 204 201 199 198 193 196 204
223 222 219 214 207 197 196 209 218 215 214 219 212 195 193 184 164 152 138 275 261 167 149 178 187 189 189 192 184 174 204 180 183 205 200 196 196 195 208 192 179 230 225 201 234 230 161 168 183 198 210 221 224 241 226 207 231 259 16 337 226 248 259 256 257 248 261 291 227 192 240 276 273 267 241 176 199 216 202 206 205 199 198 192 190 186 191 206
222 219 216 210 204 202 201 208 218 212 211 214 197 183 176 165 154 131 163 264 251 138 147 164 165 170 164 169 175 173 129 137 159 200 190 191 191 188 222 217 208 215 181 182 226 205 141 182 192 198 214 227 226 246 206 195 224 248 62 37 186 270 276 259 253 251 260 276 253 209 204 253 265 258 231 198 224 245 229 211 196 192 192 186 184 181 186 201
220 217 214 206 203 205 201 206 217 213 209 192 174 172 163 153 149 128 237 248 164 114 133 145 147 155 150 158 176 174 128 135 132 179 178 188 185 176 230 224 232 227 188 206 236 329 68 171 212 209 218 228 210 37 91 198 222 143 114 87 80 80 292 243 247 256 253 251 251 222 194 229 270 255 216 203 228 245 243 213 179 178 182 181 179 174 178 191
218 216 211 201 198 200 198 203 209 199 188 175 166 163 155 148 148 176 221 231 170 114 107 138 149 152 151 156 182 191 169 126 90 139 156 180 185 189 235 185 226 234 191 224 250 261 96 82 347 232 226 217 108 67 32 33 130 136 149 129 123 188 182 210 236 246 257 252 242 223 206 218 268 254 207 213 221 224 214 148 149 165 174 176 174 170 173 184
217 213 207 200 198 198 198 201 200 183 171 172 165 157 152 147 162 208 212 252 25 138 129 145 147 150 162 164 175 191 189 146 133 150 151 150 178 194 182 162 191 214 213 237 244 226 183 180 185 184 175 109 109 97 53 58 128 159 186 190 198 214 178 216 224 200 247 256 236 216 207 211 234 238 205 199 121 121 135 141 157 167 171 171 169 168 172 184
215 208 204 202 200 201 202 202 196 180 173 171 163 157 155 153 216 226 209 85 76 182 152 153 160 163 176 180 173 176 177 161 161 173 175 166 181 191 193 194 172 184 232 224 213 217 218 216 189 147 167 179 174 161 120 117 188 197 197 191 208 227 211 229 220 202 237 251 93 153 197 214 236 243 242 236 125 117 98 104 150 167 168 167 165 165 171 183
212 203 201 203 202 203 205 204 192 180 178 172 163 158 158 188 209 221 210 172 163 163 131 147 166 172 178 183 174 159 164 174 170 180 188 181 195 201 206 213 193 201 248 199 191 199 210 216 188 172 187 192 194 195 181 174 186 194 193 188 200 218 233 245 233 227 239 229 88 123 178 233 257 242 238 238 130 109 98 89 127 159 165 163 161 164 173 182
211 202 199 201 202 203 204 204 195 186 182 171 162 154 180 212 218 215 212 211 172 93 111 141 153 164 178 181 160 157 164 176 168 173 184 184 204 209 206 214 209 215 240 184 197 199 219 249 184 182 174 176 192 213 213 183 178 197 198 198 212 218 238 252 246 246 253 160 136 166 172 221 232 149 201 184 108 107 109 108 121 139 154 157 156 164 176 183
209 205 202 200 202 203 202 203 198 191 184 171 162 164 187 211 227 215 210 198 150 115 118 136 142 157 185 183 155 172 180 184 174 175 189 193 207 208 200 207 205 204 200 205 207 186 228 260 166 160 139 165 187 215 214 188 177 195 195 212 226 228 248 264 264 256 309 329 204 189 219 248 228 117 113 119 122 128 124 127 136 136 145 154 158 169 180 184
210 206 204 204 203 201 200 199 195 191 185 173 164 195 197 212 222 201 193 180 163 143 130 145 159 170 188 181 174 188 195 110 173 178 206 210 224 221 211 204 195 197 197 195 188 175 219 255 137 133 144 172 189 204 194 190 173 170 191 212 215 18 289 265 241 105 9 278 247 180 223 262 252 218 146 137 147 146 140 148 153 147 150 162 169 175 182 186
214 212 208 208 206 200 197 197 191 187 185 178 184 204 206 224 223 192 188 187 164 143 145 178 188 183 191 187 186 186 175 149 175 186 196 194 225 221 212 209 195 198 203 201 219 212 218 267 163 171 186 173 29 67 183 206 137 151 196 201 124 47 324 273 262 252 235 259 251 183 216 228 219 223 148 150 175 167 165 168 160 153 161 176 182 181 185 188
214 216 212 212 209 200 198 198 191 184 183 181 201 208 218 229 221 213 202 187 159 153 182 218 194 183 195 197 187 176 173 171 176 191 189 182 221 200 189 202 199 199 203 203 235 218 204 246 199 181 184 138 97 160 193 221 217 192 288 199 148 224 231 208 235 258 243 251 259 224 226 224 219 215 158 175 195 182 171 171 169 168 174 185 186 182 183 187
211 211 215 217 212 204 202 201 193 184 180 179 200 208 220 220 213 211 203 188 172 175 201 217 205 203 206 204 185 165 176 186 168 177 199 193 206 185 179 187 196 199 197 190 198 179 189 231 225 315 32 133 146 193 197 196 197 234 324 237 208 252 245 216 218 245 247 250 266 253 232 222 223 207 180 188 197 182 170 173 184 182 182 188 184 179 182 187
205 202 224 221 212 208 206 201 194 188 184 191 197 205 206 199 203 205 200 193 188 194 208 215 210 213 213 209 194 163 178 196 178 183 206 188 181 184 182 183 184 191 189 186 199 189 167 214 227 47 83 162 177 202 206 198 182 181 208 210 201 193 258 280 245 234 242 248 256 260 253 240 213 198 193 194 193 181 171 170 180 182 182 186 182 182 187 191
204 200 233 221 214 209 202 195 192 198 222 203 200 209 196 184 192 201 199 199 204 208 218 224 217 217 213 206 199 169 171 199 195 198 211 196 201 204 183 187 177 155 163 184 210 202 178 203 214 177 182 208 208 198 208 210 187 191 200 200 201 196 188 240 239 218 219 244 247 262 270 262 134 91 222 194 184 174 165 163 168 176 180 182 185 189 194 196
208 216 227 216 214 202 192 188 193 195 210 215 216 224 176 176 192 197 195 200 210 215 211 219 222 223 217 208 206 181 167 192 200 204 216 208 214 211 180 183 169 148 149 175 202 195 159 170 221 217 204 208 191 106 82 352 264 243 233 213 208 203 196 213 230 201 181 228 242 268 274 270 97 58 7 34 77 119 143 153 155 163 173 181 189 194 198 201
211 229 234 221 215 200 186 186 209 195 216 226 227 242 137 175 196 192 190 195 204 210 204 204 216 221 224 218 212 194 177 192 202 204 217 218 218 210 178 173 160 152 159 168 176 165 93 121 225 239 238 190 127 116 102 61 291 257 245 222 212 217 211 211 239 344 197 218 211 236 255 253 97 76 25 22 24 81 125 142 138 142 163 182 191 194 197 201
212 222 226 218 209 198 188 187 195 195 220 222 227 245 220 216 210 196 193 194 196 202 205 208 206 213 223 218 212 202 189 201 210 203 211 220 211 186 170 169 164 165 181 184 165 158 151 183 203 227 248 228 192 195 188 172 202 225 228 215 214 224 213 191 5 313 245 229 201 222 251 244 108 106 26 16 179 133 128 138 137 141 157 177 189 194 197 200
217 215 211 204 200 194 190 198 195 193 209 208 218 229 228 239 218 208 209 204 201 201 205 213 209 208 213 201 209 213 201 209 219 201 204 214 191 144 171 176 176 183 194 185 167 166 174 180 172 195 230 228 221 218 196 180 183 211 224 213 211 211 200 195 207 225 240 234 205 225 250 257 93 190 223 210 196 164 135 144 158 165 168 176 187 195 197 199
215 204 201 213 212 207 203 203 199 197 203 200 209 221 222 230 218 210 214 214 211 211 213 217 208 206 211 202 212 223 213 216 223 213 213 207 176 107 183 186 189 195 198 177 160 159 168 208 189 206 221 225 234 238 142 135 158 196 212 210 209 209 204 204 218 225 230 234 227 231 234 225 203 214 214 201 200 191 159 164 182 186 184 184 190 195 198 200
224 198 177 198 230 239 233 213 204 203 199 196 195 205 215 223 224 203 204 213 215 212 218 223 198 199 208 205 212 223 214 216 222 223 225 205 146 72 182 198 208 201 192 173 163 156 80 230 210 220 227 234 246 248 166 163 191 206 210 209 208 205 202 204 218 225 215 220 245 232 213 220 218 202 207 205 196 202 192 186 191 191 192 192 192 194 196 199
215 219 191 188 200 236 238 228 217 210 203 198 198 204 208 217 222 206 197 208 213 208 211 221 211 212 213 208 211 219 214 219 224 223 223 203 145 105 156 215 238 206 175 158 166 150 171 226 220 223 232 242 249 246 212 204 220 220 209 208 204 198 201 207 218 225 212 220 247 217 189 216 215 193 203 203 193 203 199 190 188 188 194 195 192 195 196 198
206 213 202 198 203 199 193 206 246 233 212 199 203 217 212 212 217 214 199 193 209 208 204 213 220 219 216 212 210 213 212 216 224 224 218 207 178 154 181 213 224 195 161 145 175 163 186 238 229 213 232 247 245 239 231 224 239 241 223 213 202 198 204 207 215 222 216 227 242 224 204 227 216 188 197 196 198 201 184 174 177 182 193 196 194 196 198 199
210 215 200 196 217 212 166 187 223 260 228 205 206 216 215 217 220 217 205 195 202 204 202 216 226 219 213 213 213 219 220 218 225 224 209 200 193 183 198 203 167 165 172 170 180 179 190 238 234 197 236 252 243 237 236 229 237 246 243 232 218 210 208 207 215 219 218 231 240 237 245 248 208 174 177 171 179 177 158 170 179 183 193 193 191 195 199 203
223 224 211 197 215 203 174 174 187 223 238 213 212 215 214 221 222 218 212 211 213 207 195 214 227 223 214 214 214 223 227 223 229 234 219 205 207 205 205 192 157 158 182 185 173 175 188 218 231 149 227 250 241 231 232 233 240 250 252 244 231 219 207 206 215 215 213 226 231 228 241 239 166 132 124 136 159 167 168 179 181 187 196 193 195 202 206 210
231 231 220 210 216 201 193 177 169 199 226 213 221 227 223 227 226 220 221 219 221 223 216 216 227 227 219 217 216 223 229 232 240 249 242 226 219 215 209 197 179 173 178 181 179 179 183 200 207 175 215 251 242 210 208 218 232 243 247 242 231 218 203 207 217 218 215 218 220 222 233 223 143 137 154 151 163 178 184 187 190 196 201 203 208 211 211 213